[[{"header":{"parameterUnit":"m.s-1","parameterCategory":2,"la1":30.2991,"la2":30.254,"lo1":-89.0895,"lo2":-89.0444,"dy":0.0017,"dx":0.0017,"nx":28,"ny":28,"refTime":"2024-06-30T03:00:00:Z","depth":"0","parameterNumber":2,"parameterNumberName":"U-component_of_CURRENTS"},"data":[0,0,0,0,0,0,0,0,0,0,0,0,0,0,0,0,0,0,0,0,0,0,0,0,0,0,0,0,0,0,0,0,0,0,0,0,0,0,0,0,0,0,0,0,0,0,0,0,0,0,0,0,0,0,0,0,0,0,0.1674,0.1673,0,0.1598,0.1598,0.1598,0.156,0.1559,0.1559,0.1558,0.157,0.1571,0.1572,0,0,0,0,0,0,0,0,0,0,0,0,0,0.1583,0.1586,0.1674,0.1673,0.1671,0.1598,0.1598,0.1598,0.156,0.1559,0.1559,0.1558,0.157,0.1571,0.1572,0,0,0,0,0,0,0,0,0,0,0,0,0,0.1583,0.1588,0.1675,0.1639,0.1634,0.1598,0.1598,0.1597,0.156,0.1559,0.1558,0.1558,0.1569,0.1571,0.1572,0.1599,0,0,0.1576,0.1577,0,0,0,0,0,0,0,0,0.1584,0.1588,0.1645,0.1641,0.1636,0.1582,0.1569,0.16,0.1561,0.1596,0.1558,0.1557,0.1578,0.1579,0.1575,0.16,0.16,0.1576,0.1577,0.1578,0.1578,0,0,0,0,0,0,0,0.1584,0.1589,0.1651,0.1644,0.1638,0.1555,0.1557,0.1574,0.16,0.1593,0.1588,0.1569,0.1577,0.1574,0.1575,0.1601,0.1576,0.1577,0.1578,0.1579,0.1674,0.1676,0,0,0,0,0,0,0.1592,0.1591,0.1653,0.1648,0.1599,0.1558,0.156,0.1606,0.1598,0.1593,0.157,0.1567,0.1572,0.1574,0.1576,0.1625,0.1578,0.1579,0.158,0.1673,0.1675,0.1677,0,0,0,0,0,0,0.1592,0.1601,0.1656,0.1607,0.1608,0.1562,0.1612,0.1604,0.1599,0.1578,0.1576,0.157,0.1571,0.1574,0.1624,0.1625,0.1579,0.1581,0.1671,0.1673,0.1676,0.1714,0,0,0,0,0,0,0.1591,0.1603,0.1637,0.1611,0.1611,0.1635,0.1612,0.1603,0.1585,0.1581,0.1579,0.1578,0.1571,0.1622,0.1625,0.1626,0.1582,0.1668,0.1672,0.1675,0.1711,0.1718,0.1724,0,0,0,0,0,0.1589,0.1631,0.1641,0.1647,0.1663,0.1634,0.1628,0.1592,0.1586,0.1586,0.1612,0.1578,0.1643,0.1626,0.1629,0.163,0.1667,0.1671,0.1675,0.1708,0.1716,0.1724,0,0,0,0,0,0,0.1568,0.163,0.164,0.1691,0.1665,0.1625,0.1617,0.1599,0.1616,0.1619,0.1617,0.162,0.1657,0.1653,0.1633,0.1669,0.1643,0.1647,0.1667,0.1675,0.1681,0.1685,0.1583,0,0,0,0,0,0.1593,0.1666,0.1664,0.1693,0.1695,0.1663,0.1647,0.1622,0.1624,0.1627,0.1632,0.1648,0.1676,0.1685,0.1701,0.1732,0.1743,0.1732,0.1738,0.1744,0.1751,0.1778,0.1788,0.1689,0.1689,0.1689,0,0,0.1579,0.1625,0.1657,0.1696,0.1682,0.1692,0.1654,0.163,0.1638,0.1631,0.1664,0.1674,0.1694,0.1727,0.174,0.1722,0.1784,0.1749,0.1753,0.1758,0.1783,0.1793,0.1801,0.1692,0.1692,0.1691,0,0,0.1581,0.1646,0.1704,0.1704,0.1696,0.1693,0.1693,0.1671,0.1669,0.17,0.1702,0.1727,0.1757,0.177,0.1784,0.1842,0.1822,0.1833,0.1863,0.1889,0.1897,0.1904,0.1955,0.1966,0.183,0.183,0.183,0,0.1564,0.1645,0.1692,0.1726,0.1724,0.1707,0.172,0.1725,0.1716,0.1728,0.1716,0.1773,0.178,0.1832,0.185,0.1853,0.1874,0.1827,0.1896,0.1903,0.191,0.196,0.1971,0.1833,0.1832,0.1832,0.1832,0,0.1608,0.1653,0.167,0.1753,0.176,0.1754,0.1771,0.1782,0.1787,0.1784,0.1823,0.1841,0.1868,0.1869,0.1882,0.1926,0.1932,0.1903,0.1871,0.1922,0.1972,0.1983,0.1836,0.1835,0.1834,0.1834,0,0,0.1638,0.1699,0.1705,0.1724,0.1771,0.1773,0.1819,0.1846,0.1869,0.1873,0.1903,0.1947,0.1935,0.1952,0.1952,0.1974,0.2043,0.196,0.1961,0.2003,0.2127,0.2205,0.2225,0.2022,0.2024,0.2025,0.2152,0,0.1654,0.1697,0.1748,0.1778,0.1795,0.1821,0.1869,0.1891,0.1909,0.1937,0.1952,0.1981,0.1974,0.1978,0.2006,0.2031,0.2072,0.2014,0.2079,0.2081,0.2137,0.224,0.2306,0.243,0.2163,0.2165,0.2166,0,0.1694,0.1722,0.1741,0.1789,0.1807,0.1833,0.1896,0.1933,0.1982,0.1995,0.2022,0.2025,0.2077,0.2044,0.2132,0.2095,0.2124,0.214,0.2144,0.221,0.2181,0.2333,0.2461,0.2299,0.2183,0.2182,0.2181,0,0.1666,0.1723,0.1734,0.1746,0.1807,0.1832,0.1878,0.1935,0.1972,0.2021,0.2043,0.2092,0.212,0.2159,0.2211,0.2169,0.2306,0.2245,0.2352,0.2357,0.2425,0.2434,0.2397,0.2313,0.2313,0.2312,0.2312,0,0.166,0.1672,0.1715,0.1713,0.1752,0.1815,0.1861,0.1908,0.1979,0.203,0.2065,0.2112,0.2147,0.222,0.2249,0.2371,0.2346,0.2397,0.2406,0.2445,0.2454,0.2323,0.2233,0.2317,0.2316,0.2315,0.2314,0,0.1604,0.1627,0.1645,0.1703,0.1722,0.175,0.1839,0.1887,0.1959,0.2023,0.2042,0.2144,0.2263,0.2324,0.2408,0.2441,0.2484,0.2564,0.2628,0.2644,0.2578,0.249,0.2533,0.2463,0.2702,0.2705,0.2708,0,0.1571,0.1572,0.1612,0.1636,0.1656,0.1709,0.1758,0.1849,0.1905,0.2048,0.2086,0.2221,0.2328,0.2526,0.263,0.2751,0.2604,0.2851,0.2781,0.2623,0.253,0.2448,0.2376,0.2892,0.2896,0.2899,0.2901,0,0.1541,0.1551,0.1574,0.1595,0.1636,0.1682,0.1754,0.1787,0.1918,0.1998,0.214,0.224,0.2483,0.2651,0.2832,0.2916,0.2753,0.2918,0.2731,0.268,0.2614,0.2535,0.2756,0.2929,0.2926,0.2924,0.2922,0.2921,0.1537,0.154,0.1572,0.1588,0.1632,0.1669,0.1694,0.1789,0.1882,0.2009,0.214,0.2299,0.2571,0.286,0.2951,0.3056,0.2938,0.2973,0.2887,0.2821,0.2734,0.3039,0.3225,0.3224,0.3223,0.3223,0.3222,0,0.1542,0.1554,0.1579,0.1603,0.1629,0.1653,0.1717,0.1747,0.1838,0.1975,0.2113,0.2379,0.2625,0.2833,0.3037,0.298,0.2937,0.2884,0.273,0.2659,0.2926,0.2908,0.3062,0.3062,0.3063,0.3063,0.3063,0.3063,0.1561,0.158,0.1577,0.1602,0.1618,0.1635,0.1657,0.1699,0.1776,0.1901,0.2023,0.2162,0.2388,0.2628,0.2715,0.2754,0.2537,0.2587,0.2395,0.2504,0.2502,0.2499,0.2456,0.2514,0.2514,0.2146,0.2143,0.214]},{"header":{"parameterUnit":"m.s-1","parameterCategory":2,"la1":30.2991,"la2":30.254,"lo1":-89.0895,"lo2":-89.0444,"dy":0.0017,"dx":0.0017,"nx":28,"ny":28,"refTime":"2024-06-30T03:00:00:Z","depth":"0","parameterNumber":3,"parameterNumberName":"V-component_of_CURRENTS"},"data":[0,0,0,0,0,0,0,0,0,0,0,0,0,0,0,0,0,0,0,0,0,0,0,0,0,0,0,0,0,0,0,0,0,0,0,0,0,0,0,0,0,0,0,0,0,0,0,0,0,0,0,0,0,0,0,0,0,0,-0.0878,-0.0877,0,-0.0846,-0.0846,-0.0846,-0.0859,-0.0859,-0.086,-0.086,-0.0867,-0.0867,-0.0867,0,0,0,0,0,0,0,0,0,0,0,0,0,-0.0912,-0.0912,-0.0878,-0.0877,-0.0877,-0.0846,-0.0846,-0.0846,-0.0859,-0.0859,-0.086,-0.086,-0.0867,-0.0867,-0.0867,0,0,0,0,0,0,0,0,0,0,0,0,0,-0.0895,-0.0912,-0.0878,-0.0875,-0.0874,-0.0846,-0.0846,-0.0846,-0.0859,-0.0859,-0.086,-0.086,-0.0867,-0.0867,-0.0867,-0.0858,0,0,-0.0866,-0.0866,0,0,0,0,0,0,0,0,-0.0896,-0.0895,-0.0877,-0.0875,-0.0874,-0.0852,-0.086,-0.085,-0.0859,-0.087,-0.086,-0.086,-0.0862,-0.0862,-0.0862,-0.0858,-0.0859,-0.0866,-0.0866,-0.0866,-0.0866,0,0,0,0,0,0,0,-0.0898,-0.0896,-0.0871,-0.0876,-0.0874,-0.0862,-0.0861,-0.0858,-0.0869,-0.0869,-0.0869,-0.0857,-0.0862,-0.0862,-0.0862,-0.0859,-0.0866,-0.0866,-0.0866,-0.0866,-0.0877,-0.0877,0,0,0,0,0,0,-0.0892,-0.0897,-0.0872,-0.0869,-0.088,-0.0861,-0.086,-0.0863,-0.0868,-0.0867,-0.0856,-0.0857,-0.0862,-0.0863,-0.0863,-0.084,-0.0866,-0.0866,-0.0866,-0.0876,-0.0877,-0.0877,0,0,0,0,0,0,-0.0894,-0.0891,-0.0873,-0.0877,-0.0874,-0.0859,-0.0863,-0.0862,-0.0858,-0.0857,-0.0858,-0.0852,-0.0863,-0.0863,-0.0866,-0.0841,-0.0866,-0.0866,-0.0876,-0.0876,-0.0877,-0.0802,0,0,0,0,0,0,-0.0895,-0.0892,-0.09,-0.0878,-0.0873,-0.085,-0.0862,-0.0861,-0.0848,-0.0849,-0.0854,-0.0855,-0.0863,-0.0867,-0.0866,-0.0841,-0.0866,-0.0875,-0.0876,-0.0877,-0.0804,-0.08,-0.0797,0,0,0,0,0,-0.0897,-0.0898,-0.0901,-0.0897,-0.0882,-0.0848,-0.0846,-0.084,-0.0847,-0.084,-0.0854,-0.0855,-0.0871,-0.0867,-0.0866,-0.084,-0.0875,-0.0876,-0.0877,-0.0806,-0.0801,-0.0797,0,0,0,0,0,0,-0.0896,-0.0898,-0.0901,-0.0898,-0.0872,-0.0849,-0.0839,-0.0835,-0.0839,-0.0845,-0.0854,-0.0856,-0.0847,-0.0865,-0.086,-0.0851,-0.0875,-0.0875,-0.0821,-0.0816,-0.0813,-0.0784,-0.0866,0,0,0,0,0,-0.0903,-0.092,-0.0895,-0.089,-0.0877,-0.0859,-0.0847,-0.084,-0.0833,-0.0835,-0.0837,-0.0849,-0.085,-0.0851,-0.0857,-0.0849,-0.0853,-0.0838,-0.0834,-0.083,-0.081,-0.08,-0.0792,-0.088,-0.088,-0.088,0,0,-0.0894,-0.0901,-0.0906,-0.0893,-0.0876,-0.0842,-0.0854,-0.0828,-0.0804,-0.0835,-0.0815,-0.083,-0.0847,-0.0837,-0.0835,-0.0847,-0.0811,-0.0831,-0.0827,-0.0809,-0.0799,-0.079,-0.0782,-0.088,-0.088,-0.088,0,0,-0.0872,-0.0894,-0.089,-0.087,-0.0844,-0.0834,-0.0823,-0.0797,-0.0793,-0.0777,-0.0793,-0.0791,-0.0799,-0.0795,-0.0798,-0.0779,-0.0789,-0.0793,-0.0745,-0.0735,-0.0726,-0.0719,-0.072,-0.0714,-0.0793,-0.0793,-0.0793,0,-0.0862,-0.0852,-0.0875,-0.0849,-0.0819,-0.0825,-0.0778,-0.0775,-0.0756,-0.0743,-0.0765,-0.0752,-0.0771,-0.0738,-0.0742,-0.0762,-0.077,-0.0754,-0.0725,-0.0718,-0.0712,-0.0715,-0.0708,-0.0789,-0.079,-0.079,-0.079,0,-0.082,-0.0808,-0.0794,-0.0777,-0.0753,-0.0716,-0.07,-0.0692,-0.0693,-0.0681,-0.0654,-0.0674,-0.0666,-0.0675,-0.0704,-0.0667,-0.0692,-0.0716,-0.0726,-0.0697,-0.0704,-0.0698,-0.0784,-0.0786,-0.0787,-0.0787,0,0,-0.0805,-0.0774,-0.0767,-0.0737,-0.0708,-0.0678,-0.065,-0.0612,-0.0583,-0.0584,-0.0536,-0.0547,-0.0559,-0.0565,-0.0591,-0.0586,-0.0561,-0.0635,-0.0636,-0.0616,-0.0549,-0.056,-0.0555,-0.0582,-0.058,-0.0579,-0.0573,0,-0.0756,-0.069,-0.0693,-0.0621,-0.0574,-0.0577,-0.0547,-0.0524,-0.0512,-0.0481,-0.0491,-0.0466,-0.0517,-0.0512,-0.0513,-0.0544,-0.0543,-0.0561,-0.0597,-0.0597,-0.0593,-0.0547,-0.0512,-0.0503,-0.0568,-0.0567,-0.0566,0,-0.0699,-0.067,-0.0581,-0.0535,-0.0515,-0.0482,-0.0428,-0.0404,-0.038,-0.0374,-0.0351,-0.0364,-0.035,-0.0407,-0.042,-0.0433,-0.0485,-0.0513,-0.0514,-0.054,-0.0597,-0.0543,-0.0491,-0.0515,-0.0558,-0.0559,-0.0559,0,-0.0646,-0.0587,-0.0514,-0.0491,-0.0445,-0.0416,-0.0399,-0.0363,-0.0333,-0.03,-0.027,-0.0262,-0.0252,-0.0296,-0.0367,-0.0396,-0.0386,-0.0435,-0.0487,-0.049,-0.0472,-0.0475,-0.0424,-0.0442,-0.0442,-0.0442,-0.0442,0,-0.0578,-0.0525,-0.0487,-0.0447,-0.038,-0.0367,-0.0295,-0.0285,-0.0248,-0.0192,-0.0212,-0.0158,-0.0226,-0.0236,-0.0319,-0.0372,-0.035,-0.0455,-0.0476,-0.045,-0.045,-0.0483,-0.0536,-0.0442,-0.0442,-0.0442,-0.0442,0,-0.0511,-0.0482,-0.0407,-0.036,-0.0345,-0.0295,-0.0245,-0.0196,-0.0178,-0.0102,-0.009,-0.0074,-0.0081,-0.0152,-0.0214,-0.03,-0.0385,-0.0393,-0.0362,-0.0379,-0.0461,-0.0513,-0.0576,-0.0561,-0.0441,-0.0441,-0.0441,0,-0.0463,-0.042,-0.0346,-0.0301,-0.0276,-0.0216,-0.0172,-0.0157,-0.0102,-0.0039,0.0008,0.0021,0.0056,-0.0031,-0.0164,-0.028,-0.0365,-0.0354,-0.04,-0.0433,-0.0506,-0.0597,-0.0586,-0.0356,-0.0355,-0.0354,-0.0354,0,-0.0397,-0.037,-0.0301,-0.0217,-0.0159,-0.0098,-0.0039,0.0009,0.004,0.0111,0.0194,0.0226,0.014,0.0089,-0.0082,-0.0204,-0.0377,-0.0349,-0.0376,-0.0418,-0.0519,-0.0525,-0.0407,-0.0349,-0.035,-0.035,-0.035,-0.035,-0.0344,-0.0285,-0.0204,-0.0115,-0.0047,0.0025,0.0096,0.0161,0.0256,0.038,0.0364,0.047,0.0341,0.0132,-0.0041,-0.0295,-0.0352,-0.0365,-0.0421,-0.0507,-0.0498,-0.0375,-0.0349,-0.035,-0.035,-0.035,-0.0351,0,-0.0281,-0.0214,-0.0122,-0.0003,0.0098,0.0096,0.0196,0.0279,0.042,0.0538,0.0629,0.0677,0.0503,0.0262,-0.0093,-0.0294,-0.0404,-0.0407,-0.0496,-0.0475,-0.0338,-0.0334,-0.031,-0.031,-0.031,-0.031,-0.031,-0.031,-0.0244,-0.0137,-0.0081,0.0104,0.0188,0.0314,0.0382,0.0493,0.0601,0.0803,0.0924,0.0979,0.0866,0.0244,-0.0183,-0.0342,-0.0479,-0.057,-0.0596,-0.0474,-0.0473,-0.0473,-0.0477,-0.0483,-0.0484,-0.0687,-0.0689,-0.0691]}],[{"header":{"parameterUnit":"m.s-1","parameterCategory":2,"la1":30.2991,"la2":30.254,"lo1":-89.0895,"lo2":-89.0444,"dy":0.0017,"dx":0.0017,"nx":28,"ny":28,"refTime":"2024-06-30T03:00:00:Z","depth":"2","parameterNumber":2,"parameterNumberName":"U-component_of_CURRENTS"},"data":[0,0,0,0,0,0,0,0,0,0,0,0,0,0,0,0,0,0,0,0,0,0,0,0,0,0,0,0,0,0,0,0,0,0,0,0,0,0,0,0,0,0,0,0,0,0,0,0,0,0,0,0,0,0,0,0,0,0,-0.0638,-0.0636,0,-0.0622,-0.0623,-0.0624,-0.052,-0.0516,-0.0512,-0.0509,-0.0558,-0.0563,-0.0568,0,0,0,0,0,0,0,0,0,0,0,0,0,-0.0689,-0.0689,-0.0638,-0.0636,-0.0635,-0.0622,-0.0623,-0.0624,-0.052,-0.0516,-0.0511,-0.0507,-0.0557,-0.0562,-0.0568,0,0,0,0,0,0,0,0,0,0,0,0,0,-0.0682,-0.0689,-0.0638,-0.0571,-0.0564,-0.0621,-0.0623,-0.0624,-0.0521,-0.0516,-0.051,-0.0505,-0.0555,-0.0562,-0.0569,-0.0728,0,0,-0.0591,-0.0594,0,0,0,0,0,0,0,0,-0.0683,-0.0682,-0.0583,-0.0576,-0.0568,-0.0554,-0.0658,-0.0657,-0.0523,-0.0553,-0.0508,-0.0502,-0.0558,-0.0565,-0.0594,-0.0731,-0.0733,-0.0592,-0.0596,-0.0599,-0.0601,0,0,0,0,0,0,0,-0.0683,-0.0683,-0.0646,-0.0581,-0.0572,-0.0579,-0.0572,-0.0659,-0.06,-0.055,-0.0538,-0.0516,-0.0556,-0.0587,-0.0594,-0.0733,-0.0592,-0.0598,-0.0603,-0.0606,-0.0762,-0.0761,0,0,0,0,0,0,-0.0658,-0.0683,-0.0646,-0.0644,-0.0596,-0.0581,-0.0574,-0.0576,-0.0597,-0.059,-0.0521,-0.0511,-0.0577,-0.0585,-0.0595,-0.0529,-0.0599,-0.0606,-0.061,-0.0762,-0.0762,-0.0761,0,0,0,0,0,0,-0.066,-0.0656,-0.0646,-0.065,-0.0647,-0.0584,-0.0588,-0.0578,-0.0506,-0.0572,-0.0568,-0.0443,-0.0573,-0.0585,-0.0624,-0.0539,-0.061,-0.0616,-0.0762,-0.0762,-0.0761,-0.0562,0,0,0,0,0,0,-0.0662,-0.0658,-0.0646,-0.0649,-0.0645,-0.0628,-0.0592,-0.0582,-0.05,-0.0485,-0.0508,-0.0511,-0.0569,-0.0613,-0.0632,-0.0551,-0.0622,-0.0762,-0.0762,-0.0762,-0.0569,-0.0555,-0.0543,0,0,0,0,0,-0.0665,-0.0643,-0.0647,-0.064,-0.0634,-0.0626,-0.0626,-0.0572,-0.05,-0.0482,-0.0504,-0.0505,-0.0621,-0.0622,-0.0642,-0.056,-0.0763,-0.0762,-0.0762,-0.0575,-0.0558,-0.0543,0,0,0,0,0,0,-0.0581,-0.0631,-0.0633,-0.0607,-0.0599,-0.06,-0.0554,-0.0526,-0.053,-0.0464,-0.054,-0.0551,-0.0547,-0.061,-0.0608,-0.061,-0.0678,-0.0682,-0.0529,-0.0514,-0.0501,-0.0387,-0.0628,0,0,0,0,0,-0.0583,-0.063,-0.0628,-0.0605,-0.058,-0.056,-0.0537,-0.0483,-0.0484,-0.0469,-0.0509,-0.0539,-0.0588,-0.0587,-0.0658,-0.0681,-0.0666,-0.0636,-0.0622,-0.061,-0.0536,-0.0485,-0.0457,-0.076,-0.076,-0.076,0,0,-0.055,-0.0573,-0.0596,-0.0601,-0.0575,-0.055,-0.0531,-0.0436,-0.0403,-0.0485,-0.0457,-0.0506,-0.0593,-0.0607,-0.0605,-0.0625,-0.0523,-0.061,-0.0598,-0.0529,-0.0481,-0.045,-0.0423,-0.0759,-0.0759,-0.0759,0,0,-0.05,-0.0506,-0.0524,-0.0513,-0.0453,-0.0462,-0.0411,-0.0377,-0.0335,-0.035,-0.0377,-0.0368,-0.0478,-0.0493,-0.0524,-0.0491,-0.0471,-0.0498,-0.0314,-0.0267,-0.0238,-0.0213,-0.016,-0.0132,-0.0471,-0.0471,-0.047,0,-0.0435,-0.0458,-0.0511,-0.0481,-0.0444,-0.0409,-0.0348,-0.034,-0.0327,-0.0293,-0.0303,-0.0349,-0.0418,-0.0386,-0.0354,-0.0447,-0.0405,-0.0359,-0.0238,-0.0214,-0.0192,-0.0143,-0.0114,-0.0461,-0.0462,-0.0463,-0.0464,0,-0.0416,-0.0388,-0.0356,-0.037,-0.0355,-0.0268,-0.0256,-0.023,-0.0186,-0.0164,-0.0098,-0.0177,-0.0181,-0.0201,-0.0262,-0.0126,-0.0144,-0.0237,-0.0253,-0.0147,-0.0106,-0.0079,-0.0447,-0.0451,-0.0454,-0.0456,0,0,-0.0351,-0.0355,-0.0332,-0.0294,-0.0255,-0.0226,-0.0191,-0.0145,-0.0083,-0.0034,0.0047,0.0033,0.0088,0.006,0.0022,0.0098,0.0266,0.0048,0.0046,0.015,0.0424,0.0383,0.0406,0.0224,0.023,0.0234,0.039,0,-0.0284,-0.0216,-0.0264,-0.0171,-0.0099,-0.0105,-0.0106,-0.005,-0.0022,0.0035,0.0116,0.0165,0.0159,0.02,0.0287,0.0256,0.0349,0.0236,0.0266,0.0268,0.0258,0.044,0.0305,0.0433,0.0416,0.042,0.0423,0,-0.0189,-0.0186,-0.0077,-0.0045,-0.0018,0.0015,0.0061,0.0074,0.0145,0.0176,0.0312,0.0349,0.0517,0.0448,0.0614,0.0562,0.0551,0.0534,0.0535,0.0466,0.0279,0.0318,0.0481,0.0467,0.0464,0.046,0.0458,0,-0.0052,-0.0007,0.0079,0.0102,0.0098,0.014,0.0144,0.0177,0.0195,0.0331,0.0391,0.0565,0.0656,0.0742,0.0761,0.0717,0.0897,0.0777,0.0739,0.0733,0.0612,0.0587,0.0898,0.0898,0.0898,0.0897,0.0897,0,0.0091,0.0153,0.0167,0.0213,0.0272,0.0273,0.0335,0.0337,0.038,0.0455,0.0543,0.0643,0.0746,0.0841,0.0851,0.0928,0.0975,0.0863,0.0807,0.0669,0.0649,0.065,0.0619,0.0903,0.0902,0.0901,0.09,0,0.0222,0.0261,0.0314,0.0324,0.0363,0.0404,0.0416,0.0445,0.0498,0.0596,0.0672,0.0763,0.0916,0.0968,0.1048,0.1022,0.1069,0.1044,0.0893,0.082,0.0856,0.0832,0.109,0.1091,0.1092,0.1092,0.1093,0,0.0284,0.0339,0.0385,0.0423,0.0435,0.0493,0.0532,0.0533,0.0557,0.0672,0.0742,0.09,0.1014,0.1137,0.1139,0.1197,0.1106,0.1007,0.0891,0.0976,0.0894,0.0869,0.0846,0.0797,0.0795,0.0793,0.0792,0,0.0316,0.0348,0.038,0.046,0.0535,0.0538,0.0614,0.0643,0.0675,0.0769,0.0904,0.1019,0.1143,0.1147,0.116,0.1133,0.1008,0.0974,0.1138,0.0755,0.0708,0.0623,0.0609,0.0777,0.0778,0.078,0.078,0.0781,0.0325,0.0343,0.0436,0.0501,0.0546,0.0605,0.066,0.0727,0.0802,0.0954,0.0995,0.1098,0.0976,0.1015,0.1029,0.1017,0.1037,0.0862,0.0864,0.0869,0.0794,0.0749,0.0813,0.0814,0.0816,0.0817,0.0818,0,0.0378,0.0427,0.0472,0.0556,0.0579,0.0641,0.0718,0.0751,0.0894,0.0998,0.112,0.0901,0.0897,0.0849,0.0865,0.0853,0.0839,0.0748,0.0673,0.0684,0.0695,0.061,0.0582,0.0582,0.0583,0.0584,0,0,0.0416,0.0489,0.0518,0.06,0.0666,0.0732,0.0802,0.089,0.0916,0.0969,0.0981,0.0965,0.0833,0.0698,0.0641,0.0664,0.0701,0.0644,0.081,0.0735,0.0749,0.0707,0.0581,0,0,0,0,0]},{"header":{"parameterUnit":"m.s-1","parameterCategory":2,"la1":30.2991,"la2":30.254,"lo1":-89.0895,"lo2":-89.0444,"dy":0.0017,"dx":0.0017,"nx":28,"ny":28,"refTime":"2024-06-30T03:00:00:Z","depth":"2","parameterNumber":3,"parameterNumberName":"V-component_of_CURRENTS"},"data":[0,0,0,0,0,0,0,0,0,0,0,0,0,0,0,0,0,0,0,0,0,0,0,0,0,0,0,0,0,0,0,0,0,0,0,0,0,0,0,0,0,0,0,0,0,0,0,0,0,0,0,0,0,0,0,0,0,0,0.0278,0.0276,0,0.0211,0.0212,0.0212,0.0148,0.0145,0.0143,0.0141,0.0274,0.028,0.0285,0,0,0,0,0,0,0,0,0,0,0,0,0,0.0374,0.0374,0.0278,0.0276,0.0274,0.0211,0.0212,0.0212,0.0148,0.0145,0.0143,0.0141,0.0273,0.0279,0.0286,0,0,0,0,0,0,0,0,0,0,0,0,0,0.0335,0.0374,0.0279,0.0225,0.0218,0.0211,0.0212,0.0212,0.0148,0.0145,0.0142,0.0139,0.027,0.0278,0.0287,0.0399,0,0,0.0312,0.0315,0,0,0,0,0,0,0,0,0.0338,0.0334,0.0235,0.0228,0.0221,0.0173,0.0293,0.028,0.0149,0.0189,0.0141,0.0138,0.0253,0.0262,0.0273,0.0405,0.0411,0.0312,0.0317,0.0321,0.0323,0,0,0,0,0,0,0,0.034,0.0336,0.0265,0.0232,0.0224,0.0211,0.0203,0.0291,0.0253,0.0185,0.0177,0.0149,0.0252,0.0265,0.0276,0.0413,0.0312,0.0319,0.0324,0.0328,0.0484,0.0483,0,0,0,0,0,0,0.0324,0.0339,0.0267,0.0262,0.0258,0.021,0.0203,0.0202,0.0248,0.0246,0.0152,0.0146,0.0252,0.0266,0.028,0.0256,0.0321,0.0328,0.0333,0.0485,0.0484,0.0483,0,0,0,0,0,0,0.0327,0.032,0.027,0.0286,0.0277,0.0211,0.0212,0.0202,0.0136,0.0217,0.0222,0.0084,0.025,0.0269,0.0321,0.0267,0.0332,0.0339,0.0485,0.0484,0.0483,0.0313,0,0,0,0,0,0,0.0331,0.0322,0.031,0.0286,0.0275,0.0236,0.0213,0.0203,0.0122,0.0112,0.0164,0.0176,0.0249,0.0309,0.0329,0.028,0.0346,0.0486,0.0485,0.0484,0.0319,0.0306,0.0294,0,0,0,0,0,0.0335,0.033,0.0311,0.03,0.0264,0.0233,0.0228,0.0179,0.0121,0.0106,0.0138,0.017,0.0312,0.0316,0.034,0.0291,0.0487,0.0485,0.0484,0.0325,0.0308,0.0295,0,0,0,0,0,0,0.0299,0.0321,0.0299,0.028,0.0241,0.0216,0.0179,0.0137,0.0145,0.0112,0.0188,0.0207,0.0222,0.0296,0.0297,0.0333,0.0395,0.0398,0.0266,0.0252,0.0239,0.0237,0.0353,0,0,0,0,0,0.0301,0.035,0.0304,0.0286,0.0252,0.02,0.0169,0.0124,0.0122,0.0113,0.0158,0.0202,0.025,0.0276,0.0344,0.0387,0.0418,0.0365,0.0352,0.0341,0.0357,0.0341,0.0327,0.0477,0.0477,0.0477,0,0,0.0294,0.0294,0.0323,0.029,0.0247,0.0222,0.0175,0.0096,0.0072,0.0139,0.0133,0.0163,0.0251,0.0284,0.0296,0.0329,0.0311,0.0339,0.0328,0.0351,0.0338,0.0323,0.0309,0.0476,0.0476,0.0476,0,0,0.0288,0.0275,0.0301,0.0272,0.019,0.0181,0.0136,0.008,0.004,0.005,0.0067,0.0069,0.0168,0.0205,0.024,0.0209,0.024,0.0204,0.0147,0.0128,0.0115,0.0104,0.0096,0.0085,0.0202,0.0202,0.0202,0,0.0239,0.0278,0.0288,0.0258,0.0229,0.0154,0.0118,0.0089,0.0062,0.0039,0.0029,0.0084,0.0137,0.0157,0.0135,0.0176,0.0173,0.0186,0.0107,0.0098,0.0089,0.0084,0.0075,0.0193,0.0194,0.0195,0.0196,0,0.0272,0.0254,0.0236,0.0233,0.021,0.0154,0.0108,0.0075,0.0019,-0.0011,-0.0047,0.0006,0.0041,0.0028,0.008,0.0033,0.005,0.008,0.0133,0.0063,0.0063,0.0056,0.0181,0.0184,0.0187,0.0189,0,0,0.0235,0.0267,0.024,0.0235,0.0178,0.0161,0.0125,0.0081,0.0049,-0.0015,-0.0043,-0.0039,-0.0076,-0.0037,-0.0023,-0.0045,-0.0129,-0.0021,-0.0018,-0.0051,-0.0181,-0.0171,-0.0177,-0.0137,-0.0138,-0.0139,-0.0169,0,0.0215,0.0205,0.0236,0.0208,0.0182,0.015,0.0147,0.0093,0.0057,0.003,-0.004,-0.0043,-0.0087,-0.0084,-0.0136,-0.0101,-0.0149,-0.0122,-0.0086,-0.0084,-0.0085,-0.0185,-0.0121,-0.0143,-0.0175,-0.0176,-0.0177,0,0.0188,0.0207,0.0186,0.0205,0.0186,0.0183,0.0165,0.0148,0.0086,0.0053,-0.0021,-0.0053,-0.0111,-0.0125,-0.0194,-0.0185,-0.0205,-0.0201,-0.0202,-0.0128,-0.0086,-0.0068,-0.0153,-0.0187,-0.0186,-0.0185,-0.0185,0,0.0152,0.0144,0.0149,0.0143,0.0167,0.0159,0.0166,0.0127,0.0118,0.0061,0.0058,-0.0048,-0.0063,-0.0142,-0.0193,-0.0191,-0.0254,-0.0232,-0.0254,-0.0252,-0.015,-0.0137,-0.0293,-0.0293,-0.0293,-0.0293,-0.0293,0,0.0107,0.0103,0.0131,0.0136,0.0138,0.0144,0.015,0.0134,0.0129,0.0128,0.005,0.0046,-0.0071,-0.013,-0.0194,-0.0262,-0.0271,-0.0278,-0.0269,-0.0209,-0.0201,-0.018,-0.0167,-0.0294,-0.0294,-0.0294,-0.0294,0,0.0051,0.007,0.0099,0.0134,0.0114,0.0121,0.0152,0.0178,0.0163,0.0175,0.016,0.0106,0.0036,-0.0082,-0.016,-0.023,-0.0292,-0.0312,-0.0238,-0.0221,-0.0275,-0.027,-0.0329,-0.0329,-0.0329,-0.033,-0.033,0,0.0037,0.0038,0.0071,0.0106,0.0122,0.0134,0.0141,0.0153,0.02,0.0219,0.0233,0.0173,0.0164,0.0021,-0.0105,-0.0228,-0.0287,-0.0266,-0.0247,-0.03,-0.0284,-0.0278,-0.0273,-0.0185,-0.0184,-0.0183,-0.0182,0,0.0047,0.0051,0.0097,0.0121,0.0147,0.0193,0.0217,0.025,0.0286,0.0339,0.0393,0.0397,0.0266,0.0158,-0.0036,-0.0103,-0.0246,-0.0249,-0.0328,-0.0188,-0.0167,-0.015,-0.0149,-0.0174,-0.0175,-0.0175,-0.0176,-0.0176,0.0055,0.0102,0.0138,0.0167,0.0215,0.0262,0.0316,0.0388,0.0465,0.0566,0.0552,0.0578,0.0361,0.0164,0.0007,-0.0153,-0.0146,-0.0207,-0.0209,-0.0212,-0.0192,-0.0172,-0.0177,-0.0177,-0.0178,-0.0179,-0.0179,0,0.0083,0.0132,0.0181,0.0263,0.0353,0.0313,0.0384,0.0481,0.0609,0.0673,0.0777,0.0607,0.0484,0.0224,0.0024,-0.0102,-0.0086,-0.0163,-0.0134,-0.0139,-0.0145,-0.0122,-0.0089,-0.0089,-0.009,-0.009,0,0,0.0126,0.018,0.0205,0.0345,0.0406,0.0499,0.0546,0.0659,0.0739,0.0836,0.0834,0.0835,0.0503,0.0331,0.0146,0.003,-0.0006,0.0032,-0.0014,0.0043,0.004,-0.0136,-0.0102,0,0,0,0,0]}],[{"header":{"parameterUnit":"m.s-1","parameterCategory":2,"la1":30.2991,"la2":30.254,"lo1":-89.0895,"lo2":-89.0444,"dy":0.0017,"dx":0.0017,"nx":28,"ny":28,"refTime":"2024-06-30T03:00:00:Z","depth":"4","parameterNumber":2,"parameterNumberName":"U-component_of_CURRENTS"},"data":[0,0,0,0,0,0,0,0,0,0,0,0,0,0,0,0,0,0,0,0,0,0,0,0,0,0,0,0,0,0,0,0,0,0,0,0,0,0,0,0,0,0,0,0,0,0,0,0,0,0,0,0,0,0,0,0,0,0,-0.0441,-0.044,0,-0.0505,-0.0506,-0.0508,-0.062,-0.0621,-0.0622,-0.0623,-0.0819,-0.0823,-0.0827,0,0,0,0,0,0,0,0,0,0,0,0,0,-0.0413,-0.0414,-0.0441,-0.044,-0.044,-0.0504,-0.0506,-0.0508,-0.062,-0.0621,-0.0622,-0.0624,-0.0818,-0.0823,-0.0828,0,0,0,0,0,0,0,0,0,0,0,0,0,-0.0456,-0.0414,-0.0441,-0.0496,-0.05,-0.0504,-0.0506,-0.0509,-0.0619,-0.0621,-0.0623,-0.0624,-0.0816,-0.0822,-0.0829,-0.0833,0,0,-0.0848,-0.085,0,0,0,0,0,0,0,0,-0.0453,-0.0458,-0.0488,-0.0492,-0.0497,-0.0547,-0.0568,-0.062,-0.0619,-0.0585,-0.0623,-0.0625,-0.0732,-0.0745,-0.0767,-0.0842,-0.0851,-0.0848,-0.0852,-0.0855,-0.0856,0,0,0,0,0,0,0,-0.045,-0.0456,-0.0477,-0.0487,-0.0493,-0.0516,-0.0525,-0.0579,-0.0659,-0.0588,-0.0594,-0.0584,-0.0737,-0.0761,-0.0773,-0.0854,-0.0848,-0.0854,-0.0857,-0.086,-0.1169,-0.1173,0,0,0,0,0,0,-0.0419,-0.0453,-0.0475,-0.0478,-0.0467,-0.0514,-0.0525,-0.0538,-0.0656,-0.0671,-0.0582,-0.0588,-0.0749,-0.0765,-0.078,-0.0987,-0.0855,-0.086,-0.0864,-0.1164,-0.117,-0.1174,0,0,0,0,0,0,-0.0419,-0.0421,-0.0472,-0.0457,-0.0464,-0.0512,-0.0526,-0.0538,-0.0609,-0.0648,-0.0669,-0.0645,-0.0751,-0.0771,-0.0878,-0.0988,-0.0863,-0.0869,-0.1159,-0.1166,-0.1172,-0.1276,0,0,0,0,0,0,-0.0418,-0.0422,-0.0429,-0.0455,-0.0463,-0.0498,-0.0523,-0.0537,-0.0591,-0.0602,-0.0707,-0.0724,-0.0754,-0.0869,-0.0885,-0.0994,-0.0874,-0.1153,-0.1162,-0.117,-0.1267,-0.1286,-0.1301,0,0,0,0,0,-0.0418,-0.0422,-0.043,-0.0432,-0.047,-0.0497,-0.0506,-0.0552,-0.0593,-0.0625,-0.071,-0.0723,-0.0935,-0.0876,-0.0894,-0.1008,-0.1149,-0.116,-0.1169,-0.1259,-0.1282,-0.1301,0,0,0,0,0,0,-0.0423,-0.0433,-0.0443,-0.0453,-0.0479,-0.0513,-0.0544,-0.0576,-0.0667,-0.0717,-0.0756,-0.0779,-0.0925,-0.0944,-0.0878,-0.1125,-0.1055,-0.1069,-0.1118,-0.1139,-0.1156,-0.1069,-0.0879,0,0,0,0,0,-0.0418,-0.0428,-0.0443,-0.0456,-0.0477,-0.0522,-0.0543,-0.0594,-0.0659,-0.0705,-0.0787,-0.0887,-0.0972,-0.1033,-0.1112,-0.1224,-0.1146,-0.1319,-0.1337,-0.1351,-0.1296,-0.1268,-0.1275,-0.1207,-0.1207,-0.1207,0,0,-0.0416,-0.0427,-0.0429,-0.0457,-0.0495,-0.0521,-0.0547,-0.0619,-0.0667,-0.0712,-0.0852,-0.0949,-0.1014,-0.1157,-0.1227,-0.1192,-0.1337,-0.1363,-0.1375,-0.131,-0.1279,-0.1284,-0.1289,-0.1214,-0.1213,-0.1212,0,0,-0.0421,-0.0445,-0.0458,-0.0488,-0.0546,-0.0567,-0.0594,-0.0686,-0.0761,-0.089,-0.0947,-0.1076,-0.1237,-0.1286,-0.1328,-0.1475,-0.1426,-0.1565,-0.1585,-0.1563,-0.1566,-0.1567,-0.1486,-0.1479,-0.1577,-0.1577,-0.1578,0,-0.0418,-0.0443,-0.0467,-0.05,-0.0532,-0.0587,-0.0634,-0.069,-0.0818,-0.0889,-0.0961,-0.1198,-0.1278,-0.1375,-0.1459,-0.1509,-0.1469,-0.15,-0.1577,-0.1576,-0.1575,-0.1492,-0.1482,-0.1584,-0.1583,-0.1582,-0.1582,0,-0.0438,-0.0467,-0.0491,-0.0536,-0.0574,-0.0637,-0.0701,-0.0796,-0.0919,-0.0988,-0.1177,-0.1292,-0.1412,-0.151,-0.1539,-0.1614,-0.1577,-0.1593,-0.1502,-0.1587,-0.1496,-0.1484,-0.1593,-0.159,-0.1589,-0.1587,0,0,-0.0425,-0.0485,-0.0501,-0.0524,-0.0622,-0.0645,-0.0749,-0.0838,-0.0906,-0.109,-0.1185,-0.1388,-0.1469,-0.1515,-0.1595,-0.1606,-0.1608,-0.1619,-0.1615,-0.1496,-0.1521,-0.1336,-0.1304,-0.1653,-0.1652,-0.1651,-0.146,0,-0.0444,-0.048,-0.0531,-0.0583,-0.0611,-0.0707,-0.0783,-0.0886,-0.1008,-0.1114,-0.1248,-0.1369,-0.1458,-0.1553,-0.1582,-0.1602,-0.1582,-0.1654,-0.1489,-0.1481,-0.1273,-0.1286,-0.1647,-0.145,-0.1447,-0.1445,-0.1444,0,-0.0465,-0.0482,-0.0547,-0.0609,-0.0641,-0.0713,-0.0847,-0.0923,-0.1058,-0.1159,-0.1283,-0.1356,-0.1423,-0.149,-0.1484,-0.1538,-0.1523,-0.152,-0.1513,-0.1273,-0.1273,-0.1351,-0.142,-0.1422,-0.1424,-0.1426,-0.1427,0,-0.0436,-0.0492,-0.0543,-0.0573,-0.0663,-0.077,-0.085,-0.0995,-0.1044,-0.1177,-0.1204,-0.1308,-0.1337,-0.136,-0.1349,-0.1437,-0.1277,-0.139,-0.1179,-0.1165,-0.1339,-0.1339,-0.1326,-0.1326,-0.1327,-0.1327,-0.1328,0,-0.0444,-0.0469,-0.0553,-0.0588,-0.0668,-0.0784,-0.0904,-0.0988,-0.11,-0.1089,-0.1226,-0.1167,-0.1308,-0.1236,-0.1276,-0.1131,-0.1199,-0.1124,-0.1093,-0.1395,-0.1404,-0.1329,-0.1332,-0.132,-0.1322,-0.1323,-0.1324,0,-0.0418,-0.0472,-0.0502,-0.0619,-0.0668,-0.0752,-0.0888,-0.093,-0.1051,-0.1026,-0.104,-0.1042,-0.0948,-0.0992,-0.0966,-0.0968,-0.0897,-0.0819,-0.1043,-0.1037,-0.0831,-0.0844,-0.0609,-0.06,-0.0593,-0.0587,-0.0582,0,-0.041,-0.0434,-0.0501,-0.0527,-0.0613,-0.0731,-0.0793,-0.092,-0.0909,-0.0876,-0.0799,-0.0727,-0.071,-0.0506,-0.0592,-0.0576,-0.0598,-0.0549,-0.0794,-0.0758,-0.0753,-0.0777,-0.0797,-0.0571,-0.0569,-0.0567,-0.0566,0,-0.0381,-0.0418,-0.0433,-0.0472,-0.0549,-0.0553,-0.0639,-0.0612,-0.0676,-0.0726,-0.0542,-0.0493,-0.0346,-0.0353,-0.0304,-0.0316,-0.0603,-0.0479,-0.0499,-0.0728,-0.071,-0.0718,-0.0747,-0.0541,-0.0545,-0.0547,-0.0548,0,-0.0353,-0.0344,-0.037,-0.0405,-0.0429,-0.0394,-0.045,-0.0412,-0.0419,-0.041,-0.029,-0.0248,-0.0254,-0.0196,-0.0133,-0.0138,-0.0223,-0.0292,-0.0324,-0.0352,-0.0368,-0.0314,0.0059,0,0,0,0,0,-0.0313,-0.0294,-0.0295,-0.0302,-0.0295,-0.0317,-0.0321,-0.0363,-0.0387,-0.0229,-0.029,-0.0152,-0.008,-0.0041,-0.0014,-0.0051,-0.0236,-0.0016,-0.0337,-0.0405,-0.0433,-0.0483,0,0,0,0,0,0,-0.0291,-0.0276,-0.0265,-0.0199,-0.0183,-0.0161,-0.0165,-0.0177,-0.0107,-0.0135,-0.0095,-0.0122,-0.0064,-0.0099,-0.0003,-0.0003,-0.0194,-0.0013,-0.0011,-0.0389,-0.0415,-0.0437,-0.0498,0,0,0,0,0]},{"header":{"parameterUnit":"m.s-1","parameterCategory":2,"la1":30.2991,"la2":30.254,"lo1":-89.0895,"lo2":-89.0444,"dy":0.0017,"dx":0.0017,"nx":28,"ny":28,"refTime":"2024-06-30T03:00:00:Z","depth":"4","parameterNumber":3,"parameterNumberName":"V-component_of_CURRENTS"},"data":[0,0,0,0,0,0,0,0,0,0,0,0,0,0,0,0,0,0,0,0,0,0,0,0,0,0,0,0,0,0,0,0,0,0,0,0,0,0,0,0,0,0,0,0,0,0,0,0,0,0,0,0,0,0,0,0,0,0,-0.0243,-0.0243,0,-0.0298,-0.0299,-0.0299,-0.0307,-0.0307,-0.0306,-0.0306,-0.0339,-0.0341,-0.0342,0,0,0,0,0,0,0,0,0,0,0,0,0,-0.0141,-0.0143,-0.0243,-0.0243,-0.0244,-0.0298,-0.0299,-0.03,-0.0307,-0.0307,-0.0306,-0.0306,-0.0339,-0.034,-0.0342,0,0,0,0,0,0,0,0,0,0,0,0,0,-0.019,-0.0144,-0.0243,-0.0255,-0.0256,-0.0298,-0.0299,-0.03,-0.0308,-0.0307,-0.0306,-0.0305,-0.0338,-0.034,-0.0342,-0.037,0,0,-0.0348,-0.0349,0,0,0,0,0,0,0,0,-0.0187,-0.0193,-0.0252,-0.0254,-0.0256,-0.0295,-0.0275,-0.0322,-0.0308,-0.0288,-0.0306,-0.0305,-0.0323,-0.0326,-0.0339,-0.0371,-0.0373,-0.0349,-0.035,-0.0351,-0.0351,0,0,0,0,0,0,0,-0.0184,-0.0191,-0.0264,-0.0253,-0.0255,-0.0256,-0.0262,-0.0284,-0.0309,-0.029,-0.029,-0.0297,-0.0324,-0.0337,-0.0339,-0.0373,-0.0349,-0.035,-0.0352,-0.0352,-0.0381,-0.038,0,0,0,0,0,0,-0.0178,-0.0188,-0.0263,-0.0266,-0.0219,-0.0259,-0.0266,-0.0283,-0.0309,-0.0312,-0.0298,-0.0297,-0.0334,-0.0337,-0.0341,-0.031,-0.0351,-0.0353,-0.0354,-0.0381,-0.0381,-0.038,0,0,0,0,0,0,-0.0176,-0.0185,-0.0261,-0.0227,-0.0237,-0.0261,-0.0281,-0.0285,-0.0297,-0.0315,-0.0318,-0.0306,-0.0333,-0.0338,-0.0364,-0.0313,-0.0354,-0.0355,-0.0382,-0.0381,-0.038,-0.0289,0,0,0,0,0,0,-0.0173,-0.0184,-0.0196,-0.0228,-0.0239,-0.029,-0.0282,-0.0286,-0.0303,-0.0303,-0.0324,-0.0326,-0.0333,-0.0361,-0.0366,-0.0317,-0.0357,-0.0382,-0.0381,-0.0381,-0.0293,-0.0286,-0.0279,0,0,0,0,0,-0.017,-0.019,-0.0197,-0.0206,-0.0255,-0.0291,-0.0297,-0.0311,-0.0304,-0.0318,-0.0328,-0.0325,-0.0357,-0.0363,-0.0369,-0.0319,-0.0383,-0.0382,-0.0381,-0.0296,-0.0287,-0.028,0,0,0,0,0,0,-0.0156,-0.0194,-0.0202,-0.0234,-0.0262,-0.0292,-0.0307,-0.0313,-0.0334,-0.0334,-0.034,-0.0344,-0.0347,-0.036,-0.0366,-0.0327,-0.0361,-0.0361,-0.0295,-0.0287,-0.028,-0.0286,-0.0359,0,0,0,0,0,-0.0159,-0.0183,-0.0217,-0.0244,-0.0258,-0.0282,-0.0297,-0.031,-0.0332,-0.034,-0.0352,-0.0356,-0.0349,-0.0341,-0.0362,-0.0349,-0.036,-0.0316,-0.0309,-0.0303,-0.0314,-0.0271,-0.026,-0.0377,-0.0377,-0.0377,0,0,-0.016,-0.0185,-0.0198,-0.0242,-0.0264,-0.0294,-0.029,-0.0321,-0.0345,-0.0341,-0.0373,-0.0353,-0.035,-0.0333,-0.033,-0.0331,-0.028,-0.0302,-0.0296,-0.0311,-0.0268,-0.0256,-0.0246,-0.0376,-0.0376,-0.0376,0,0,-0.017,-0.0199,-0.0217,-0.0248,-0.0285,-0.0306,-0.0314,-0.0348,-0.0361,-0.0382,-0.037,-0.0343,-0.0343,-0.0323,-0.0309,-0.0288,-0.0263,-0.0254,-0.0199,-0.0155,-0.0145,-0.0136,-0.0148,-0.0141,-0.0227,-0.0227,-0.0226,0,-0.0169,-0.0205,-0.0228,-0.0259,-0.0291,-0.031,-0.0344,-0.0365,-0.0401,-0.0407,-0.0388,-0.0357,-0.0347,-0.0305,-0.0256,-0.0273,-0.024,-0.0221,-0.0143,-0.0134,-0.0126,-0.0142,-0.0134,-0.0222,-0.0223,-0.0223,-0.0223,0,-0.0186,-0.0227,-0.0245,-0.0292,-0.0327,-0.0364,-0.04,-0.0423,-0.0421,-0.0423,-0.04,-0.0369,-0.0324,-0.0294,-0.0247,-0.0163,-0.0159,-0.0153,-0.0156,-0.0108,-0.0129,-0.0123,-0.0216,-0.0217,-0.0219,-0.022,0,0,-0.0162,-0.024,-0.0249,-0.0284,-0.0354,-0.0383,-0.0429,-0.0464,-0.0471,-0.0457,-0.0444,-0.0369,-0.0298,-0.0277,-0.0207,-0.014,-0.0036,-0.0072,-0.0072,-0.0073,0.0062,0.0013,0.0014,0.0036,0.0038,0.0039,0.0022,0,-0.0172,-0.0232,-0.0274,-0.0342,-0.0383,-0.0432,-0.0469,-0.0501,-0.0501,-0.0492,-0.0434,-0.0377,-0.0305,-0.0214,-0.0142,-0.0064,-0.0012,-0.0034,0.0004,0.0002,-0.0035,0.0022,0.0045,0.0026,0.0027,0.0028,0.0029,0,-0.0172,-0.0222,-0.0289,-0.0377,-0.0397,-0.0434,-0.0492,-0.0514,-0.0515,-0.0492,-0.0419,-0.0363,-0.0246,-0.0188,-0.0056,-0.0043,0.0029,0.0066,0.0066,-0.0011,-0.0035,-0.0031,0.0038,0.0038,0.0037,0.0036,0.0036,0,-0.0141,-0.0232,-0.0288,-0.0323,-0.0418,-0.0449,-0.0472,-0.0503,-0.0512,-0.0445,-0.0415,-0.0315,-0.0227,-0.0125,-0.0024,0.0017,0.0071,0.0109,0.0089,0.0083,0.0091,0.0081,0.0177,0.0177,0.0177,0.0177,0.0177,0,-0.0144,-0.019,-0.0274,-0.031,-0.0367,-0.0418,-0.0448,-0.0454,-0.0448,-0.0436,-0.0359,-0.0321,-0.0179,-0.0137,-0.0044,0.0023,0.0053,0.0093,0.009,0.0124,0.0119,0.0094,0.0084,0.0177,0.0177,0.0177,0.0177,0,-0.012,-0.0172,-0.0243,-0.0335,-0.0359,-0.0383,-0.0429,-0.0443,-0.0412,-0.039,-0.0342,-0.0288,-0.0207,-0.0171,-0.005,-0.0011,0.0047,0.005,0.0026,0.0021,0.0034,0.0029,0.006,0.0058,0.0057,0.0056,0.0055,0,-0.0122,-0.0155,-0.0248,-0.0283,-0.0328,-0.0366,-0.0401,-0.0406,-0.0402,-0.0377,-0.0357,-0.0299,-0.0259,-0.0182,-0.0116,-0.0044,-0.002,-0.0005,0.0086,0.0035,0.0029,0.0026,0.0023,0.0053,0.0052,0.0052,0.0052,0,-0.0139,-0.0164,-0.0217,-0.0268,-0.0317,-0.0376,-0.0397,-0.0381,-0.0373,-0.0376,-0.0329,-0.0284,-0.0256,-0.018,-0.0162,-0.0094,-0.0009,-0.0018,-0.0012,0.0074,0.0027,0.0022,0.002,0.0047,0.0048,0.0048,0.0048,0,-0.0152,-0.0175,-0.0221,-0.0262,-0.0314,-0.0347,-0.037,-0.037,-0.0364,-0.0323,-0.032,-0.0285,-0.0266,-0.0211,-0.0184,-0.0144,-0.0086,-0.0027,-0.002,-0.0014,-0.0025,-0.0095,-0.011,0,0,0,0,0,-0.0172,-0.0179,-0.0213,-0.0258,-0.0297,-0.0325,-0.0363,-0.0377,-0.0366,-0.0329,-0.0313,-0.0283,-0.0227,-0.0214,-0.0173,-0.0191,-0.0086,-0.0142,-0.0015,0.0022,0.0027,0.0025,0,0,0,0,0,0,-0.0192,-0.0213,-0.0206,-0.0231,-0.0247,-0.0301,-0.0317,-0.0327,-0.0295,-0.0281,-0.0256,-0.0258,-0.0215,-0.0246,-0.0166,-0.016,-0.0068,-0.013,-0.0128,0.0019,0.0024,0.0028,0.0027,0,0,0,0,0]}]]